Wetbulb
72.38 73.67 72.99 72.62 75.81 74.65 72.71 73.25 71.68 73.56 75.55 74.93 74.74 75.63 74.65 74.84 72.10 72.82 72.56 74.26 75.02 74.13 74.40 74.60 75.00 74.86 74.52 74.13 74.48 74.77 74.81 75.24 75.99 76.35 76.39 76.70 77.00 77.38 76.68 76.79 76.66 76.84 76.97
73.91 72.44 73.65 74.32 75.30 76.48 72.78 72.80 73.76 75.76 75.99 74.39 76.02 75.26 74.25 75.03 72.64 73.35 72.79 73.34 74.39 74.73 75.12 74.49 75.28 75.43 75.30 75.27 75.48 75.48 75.82 76.42 76.85 76.20 76.62 76.74 76.78 77.42 76.93 76.80 76.90 77.00 76.65
73.35 74.21 73.40 75.91 75.23 77.11 76.60 74.67 71.62 72.18 75.44 74.69 75.81 76.35 75.54 75.55 73.53 73.12 73.09 72.53 73.45 74.80 75.97 75.24 75.89 75.94 75.30 75.15 75.18 75.75 76.61 76.75 76.97 76.95 76.78 76.88 76.94 76.96 76.76 76.83 76.53 76.43 76.79
73.02 74.92 75.06 72.82 76.77 77.76 75.44 76.04 71.42 72.39 72.96 72.18 72.15 76.24 73.65 74.79 74.00 73.81 73.51 73.06 73.29 73.58 75.62 76.38 76.18 76.23 75.70 75.40 75.80 76.53 76.72 76.82 76.63 76.91 77.01 77.11 77.14 77.17 77.02 76.49 76.56 76.49 76.49
73.79 76.02 74.93 76.35 77.25 75.94 70.52 71.38 72.93 72.34 71.61 70.99 70.09 73.84 74.37 74.66 73.74 72.82 72.47 72.80 73.71 73.92 73.74 75.94 76.24 76.77 75.98 76.36 76.51 76.22 76.65 76.75 76.51 76.79 76.71 76.96 76.97 76.84 76.71 76.72 76.82 76.74 76.57
74.90 76.28 75.64 72.22 75.99 76.94 74.19 75.03 76.91 75.44 72.40 69.00 71.43 73.00 71.90 74.38 74.50 72.30 72.26 73.03 73.30 73.51 73.75 74.09 75.21 75.03 76.30 76.51 76.85 76.81 76.27 75.93 76.38 76.56 76.74 76.62 76.59 76.77 76.54 76.49 76.49 76.36 76.46
74.80 76.64 76.36 75.94 77.75 76.25 69.29 70.67 76.47 69.86 71.13 73.81 70.94 70.45 73.41 73.39 74.48 73.55 73.06 72.47 72.09 73.14 74.22 73.82 74.19 73.81 74.71 76.46 76.66 76.84 76.06 75.52 75.91 76.41 76.79 76.64 76.67 76.37 76.44 76.26 76.18 76.36 76.21
75.51 76.38 76.01 73.20 77.14 76.95 74.46 75.59 75.76 73.79 71.68 75.72 67.87 67.87 66.18 70.72 71.20 71.93 72.31 72.44 71.57 72.97 73.81 73.82 73.59 73.06 73.36 73.53 75.39 76.84 76.75 76.82 76.53 76.70 76.92 76.54 76.47 76.46 76.33 76.12 75.99 76.07 75.90
76.17 77.67 73.38 69.58 76.60 76.20 74.55 76.45 75.71 72.77 69.65 72.98 70.91 71.41 65.61 63.85 67.74 71.77 72.19 72.65 71.77 72.12 73.54 73.75 74.07 73.53 73.81 74.07 75.47 76.33 76.42 76.14 77.11 77.73 77.44 77.15 76.84 76.79 76.66 76.43 76.06 75.79 75.49
76.05 76.68 77.57 76.29 77.20 77.14 72.08 74.44 76.35 75.34 75.21 72.28 72.77 74.62 73.95 68.16 66.95 67.59 73.28 74.11 74.02 73.14 72.75 73.50 73.41 74.75 74.65 74.08 75.66 75.84 75.66 75.48 76.29 77.44 77.84 77.64 77.20 77.35 76.94 76.54 76.13 75.79 75.54
76.77 76.56 77.16 77.48 77.76 77.29 76.50 77.85 78.05 76.59 75.90 74.15 69.73 69.71 74.92 74.09 74.86 68.19 65.32 67.47 73.78 74.05 73.36 74.69 73.37 73.84 75.15 74.96 73.99 75.14 75.51 75.41 75.53 76.19 76.87 77.26 77.41 77.72 77.30 77.12 76.79 76.59 76.48
75.44 77.39 76.72 77.39 78.44 77.47 77.45 77.82 79.03 78.64 77.28 76.13 75.50 75.46 71.44 70.45 67.92 68.66 66.75 67.87 67.67 70.38 68.81 72.05 72.62 73.67 75.07 75.23 76.65 76.60 75.39 74.81 74.36 74.98 75.53 76.01 76.62 77.29 77.22 77.32 77.49 77.29 77.02
73.49 74.86 77.51 77.75 76.97 78.74 78.16 77.79 78.64 78.61 78.07 76.51 76.91 74.84 74.99 73.53 70.59 70.24 68.79 66.66 62.48 65.51 68.48 72.02 74.91 73.99 75.43 74.94 75.38 76.19 75.66 74.07 73.59 73.29 73.49 74.38 75.24 76.01 76.72 76.94 77.22 77.26 77.35
71.46 76.02 76.75 75.63 77.68 78.16 77.79 77.95 77.25 76.81 77.01 77.42 76.67 76.21 75.74 74.63 73.51 72.44 71.98 69.60 64.61 63.62 69.34 70.17 72.94 76.60 75.88 74.90 76.62 76.05 74.29 72.52 72.29 71.68 71.55 72.04 72.65 73.77 74.63 75.66 75.93 76.11 76.47
72.08 75.24 75.77 76.88 76.94 77.31 76.69 77.91 76.65 77.27 77.21 77.26 76.10 76.65 76.51 74.24 74.76 73.81 74.39 74.01 69.82 65.37 65.76 67.49 69.82 74.01 76.27 76.56 76.98 75.93 75.82 72.17 71.63 71.03 70.29 70.12 70.72 71.70 72.75 73.47 73.78 73.96 74.46
73.11 72.22 74.06 74.93 76.48 76.86 78.03 77.76 76.47 76.99 76.77 76.07 75.44 75.55 76.46 75.31 75.36 75.13 73.53 75.27 74.22 71.36 66.78 68.37 70.87 71.21 76.80 76.67 75.98 76.60 76.86 73.31 71.25 70.68 69.87 69.36 69.66 70.36 71.20 71.89 71.94 71.93 72.30
74.11 71.03 70.96 69.63 74.39 77.48 77.24 77.00 76.04 77.43 75.97 76.88 76.80 76.08 76.23 77.56 75.52 75.22 75.29 74.77 74.08 74.21 70.63 71.63 70.44 71.38 71.44 76.80 75.74 77.77 77.54 76.57 73.24 70.10 69.83 69.38 68.95 69.51 70.25 70.52 70.59 70.47 70.69
78.69 70.70 71.18 66.33 73.99 76.88 76.53 75.83 75.46 74.33 75.17 74.56 75.32 75.24 74.86 74.99 76.56 76.37 75.33 74.86 75.41 75.65 73.38 70.98 73.97 72.82 75.64 77.37 77.02 76.89 77.33 76.83 76.52 71.82 69.73 69.07 68.43 68.40 68.25 68.59 68.32 68.32 68.00
76.02 75.69 73.97 74.08 75.72 75.89 76.10 75.58 76.29 75.41 76.52 76.15 75.03 74.91 75.64 76.36 75.98 75.89 76.00 74.96 74.56 74.91 74.98 73.00 72.45 75.81 76.40 73.96 76.44 76.86 76.73 77.26 77.76 72.78 68.95 68.60 68.09 67.75 67.20 66.33 66.10 65.39 64.40
74.49 75.40 75.51 75.59 75.52 75.51 76.21 76.12 75.66 75.19 75.13 75.88 75.61 75.50 75.89 75.54 75.30 75.29 74.90 75.31 74.06 74.58 74.50 72.90 72.82 73.65 75.10 76.57 75.62 74.27 74.26 76.34 75.99 77.44 73.53 72.05 69.97 68.68 67.49 65.90 65.55 65.25 63.02
75.03 74.71 75.18 75.57 76.20 75.61 75.30 75.72 75.56 74.64 75.21 74.51 75.09 75.47 76.63 75.97 74.48 74.46 74.23 75.06 74.64 73.92 73.78 72.44 71.93 72.40 73.19 73.23 72.90 73.58 71.05 71.88 74.99 74.88 73.73 73.83 73.30 72.60 72.07 67.63 68.76 67.53 64.51
75.39 75.12 74.59 74.67 75.56 74.97 70.46 69.60 74.15 74.20 75.39 73.82 73.29 75.41 76.39 74.29 73.14 70.27 70.20 70.05 73.71 73.51 72.78 71.66 72.10 71.88 71.74 72.85 73.75 73.22 73.05 71.65 69.83 76.62 74.37 74.14 74.50 72.94 73.60 74.26 70.81 67.56 65.26
75.27 74.54 74.60 74.90 74.71 75.41 68.47 67.14 69.45 74.91 75.09 75.21 74.94 75.09 74.98 73.93 72.88 74.91 69.45 68.58 68.84 68.12 69.58 72.81 72.43 73.11 73.38 73.65 74.43 73.51 72.66 73.07 72.28 74.34 73.82 72.33 73.73 72.45 74.40 71.13 65.66 65.30 64.04
74.62 74.63 73.89 74.59 74.75 75.32 68.28 65.12 67.84 73.30 73.52 74.44 74.67 76.13 74.65 74.17 74.76 75.07 75.58 75.04 74.91 75.05 73.14 71.62 72.03 72.86 73.58 74.80 76.33 76.07 73.91 74.12 74.06 74.71 74.85 70.03 72.40 71.53 71.25 68.89 65.50 63.81 61.93
74.24 74.34 74.51 74.57 74.51 74.72 66.37 64.77 66.67 73.16 72.89 73.37 73.95 74.38 75.01 75.31 71.19 67.66 74.83 74.29 74.21 75.05 71.59 67.22 69.44 71.15 70.30 70.54 71.57 74.47 72.14 71.36 70.11 72.10 73.18 71.11 71.49 70.85 71.99 69.68 64.92 62.88 60.78
74.24 74.86 74.61 74.90 72.30 74.71 67.53 63.17 65.36 72.68 72.02 72.26 73.56 73.55 67.92 71.92 69.33 65.82 73.06 73.68 72.45 73.21 75.00 74.38 74.11 71.07 67.54 70.65 65.78 73.41 73.47 70.83 70.69 69.60 72.94 70.44 70.74 69.96 67.19 69.79 66.23 64.33 60.97
MSLP
1017.43 1017.40 1016.88 1016.43 1015.58 1015.96 1017.07 1018.45 1017.35 1017.25 1016.00 1015.59 1015.77 1015.53 1015.38 1015.44 1016.22 1016.42 1017.40 1017.76 1018.15 1018.60 1018.97 1019.48 1019.84 1020.26 1020.52 1020.81 1021.27 1021.71 1022.07 1022.41 1022.90 1023.21 1023.45 1023.65 1023.83 1024.03 1024.17 1024.35 1024.43 1024.53 1024.61
1016.95 1016.55 1016.40 1015.58 1015.83 1015.66 1017.69 1017.66 1016.32 1016.07 1015.74 1015.77 1015.76 1015.59 1015.38 1015.16 1016.27 1016.39 1017.07 1017.65 1017.94 1018.40 1018.74 1019.12 1019.53 1019.88 1020.30 1020.63 1021.05 1021.49 1021.80 1022.25 1022.68 1023.06 1023.38 1023.48 1023.59 1023.81 1024.02 1024.18 1024.30 1024.35 1024.38
1016.73 1016.45 1015.97 1015.73 1016.10 1016.03 1016.51 1016.33 1016.98 1016.69 1016.46 1015.83 1015.87 1015.55 1015.48 1015.24 1015.78 1016.11 1016.63 1017.36 1017.90 1018.29 1018.56 1018.99 1019.41 1019.76 1020.01 1020.35 1020.82 1021.24 1021.63 1022.05 1022.41 1022.74 1023.01 1023.24 1023.40 1023.64 1023.80 1023.97 1024.05 1024.11 1024.13
1016.57 1016.25 1015.82 1015.62 1015.68 1016.05 1016.64 1016.22 1016.16 1016.82 1017.26 1015.73 1016.17 1015.62 1015.48 1015.18 1015.38 1015.91 1016.41 1016.89 1017.66 1018.09 1018.66 1018.95 1019.27 1019.68 1019.98 1020.23 1020.55 1020.95 1021.37 1021.74 1022.09 1022.38 1022.66 1022.89 1023.14 1023.34 1023.54 1023.70 1023.75 1023.79 1023.83
1016.19 1015.80 1015.60 1015.80 1015.44 1016.02 1016.60 1016.71 1016.50 1016.42 1016.86 1017.14 1016.92 1016.08 1015.71 1015.72 1015.62 1015.52 1016.22 1016.42 1016.96 1017.56 1018.34 1018.97 1019.37 1019.67 1019.93 1020.15 1020.39 1020.77 1021.09 1021.43 1021.78 1022.11 1022.40 1022.66 1022.83 1023.00 1023.20 1023.32 1023.40 1023.47 1023.49
1015.97 1015.86 1015.76 1016.48 1015.80 1015.66 1016.48 1016.67 1015.72 1015.74 1016.86 1016.69 1016.37 1016.46 1016.10 1015.80 1015.58 1015.65 1015.84 1015.91 1016.36 1017.00 1017.72 1018.48 1019.20 1019.58 1019.88 1020.03 1020.23 1020.47 1020.75 1021.15 1021.52 1021.89 1022.10 1022.30 1022.49 1022.71 1022.86 1022.96 1023.05 1023.17 1023.20
1015.94 1015.64 1015.97 1015.55 1015.41 1015.66 1015.66 1015.93 1016.13 1016.66 1015.89 1015.72 1016.09 1016.71 1016.52 1015.80 1015.83 1015.67 1015.53 1015.69 1015.85 1016.32 1017.15 1017.96 1018.62 1018.99 1019.33 1019.59 1019.86 1020.12 1020.35 1020.68 1021.04 1021.39 1021.74 1022.02 1022.23 1022.41 1022.54 1022.64 1022.75 1022.83 1022.87
1015.68 1015.56 1015.78 1015.76 1015.45 1015.72 1016.21 1016.32 1016.31 1016.97 1017.08 1015.94 1017.30 1017.51 1017.41 1016.10 1015.83 1016.28 1015.90 1015.96 1015.84 1015.86 1016.66 1017.32 1017.86 1018.23 1018.58 1019.04 1019.27 1019.59 1019.99 1020.31 1020.63 1020.98 1021.31 1021.61 1021.83 1022.01 1022.16 1022.31 1022.41 1022.49 1022.56
1014.99 1014.94 1015.84 1015.50 1015.42 1015.22 1015.72 1015.90 1016.32 1016.79 1016.48 1016.11 1017.01 1016.22 1016.59 1017.91 1017.22 1016.72 1016.34 1016.08 1015.76 1015.88 1015.94 1016.43 1017.07 1017.33 1017.90 1018.33 1018.68 1019.09 1019.44 1019.83 1020.15 1020.49 1020.82 1021.10 1021.34 1021.55 1021.74 1021.90 1022.02 1022.11 1022.20
1014.56 1014.72 1014.68 1014.88 1014.79 1015.39 1015.51 1016.35 1016.10 1016.26 1016.42 1016.19 1016.00 1015.34 1015.50 1016.76 1016.87 1016.60 1016.35 1016.12 1015.71 1015.71 1015.88 1016.08 1016.46 1016.94 1017.40 1017.82 1018.04 1018.49 1018.93 1019.37 1019.66 1019.94 1020.23 1020.50 1020.78 1021.02 1021.20 1021.38 1021.55 1021.67 1021.77
1014.09 1014.26 1014.42 1014.67 1014.88 1014.86 1015.14 1014.86 1015.21 1015.78 1016.17 1016.14 1015.79 1016.04 1015.67 1016.23 1016.08 1017.30 1018.08 1016.83 1016.02 1015.24 1016.41 1016.06 1016.24 1016.49 1016.84 1017.20 1017.52 1017.75 1018.17 1018.65 1019.10 1019.50 1019.80 1020.04 1020.25 1020.46 1020.67 1020.88 1021.03 1021.12 1021.23
1014.08 1013.91 1014.14 1014.46 1014.60 1014.70 1014.52 1014.31 1014.54 1015.02 1015.56 1015.35 1015.29 1015.39 1015.73 1016.13 1017.11 1017.59 1017.98 1017.99 1017.24 1016.77 1016.44 1016.99 1016.43 1016.28 1016.36 1016.54 1016.70 1016.89 1017.36 1017.91 1018.41 1018.82 1019.22 1019.55 1019.82 1020.03 1020.19 1020.32 1020.41 1020.49 1020.59
1013.95 1013.98 1014.16 1014.41 1014.62 1014.54 1014.57 1014.36 1014.36 1014.49 1014.79 1015.25 1015.38 1015.50 1015.56 1015.34 1016.43 1016.73 1016.79 1017.56 1017.03 1017.02 1017.35 1016.73 1016.28 1015.95 1016.20 1016.26 1016.26 1016.46 1016.91 1017.38 1017.89 1018.31 1018.67 1019.03 1019.36 1019.62 1019.76 1019.84 1019.97 1020.05 1020.07
1013.29 1013.18 1013.60 1014.07 1014.38 1014.43 1014.45 1014.55 1014.46 1014.42 1014.51 1014.69 1014.84 1015.21 1015.16 1015.01 1015.35 1015.73 1015.58 1016.34 1017.23 1018.12 1017.21 1017.30 1016.09 1015.39 1015.80 1016.01 1016.11 1016.19 1016.65 1016.95 1017.31 1017.76 1018.10 1018.42 1018.71 1019.02 1019.27 1019.40 1019.50 1019.61 1019.68
1012.97 1013.66 1013.49 1013.49 1013.76 1014.27 1014.76 1014.62 1014.62 1014.54 1014.52 1014.57 1014.73 1014.68 1014.84 1014.67 1014.57 1014.34 1014.60 1015.30 1015.83 1017.23 1017.22 1017.92 1017.08 1015.55 1015.48 1015.73 1015.89 1016.06 1016.13 1016.58 1016.83 1017.18 1017.51 1017.82 1018.12 1018.41 1018.66 1018.83 1019.00 1019.18 1019.28
1013.17 1013.60 1013.53 1014.26 1013.67 1014.04 1014.39 1014.80 1014.66 1014.50 1014.50 1014.48 1014.41 1014.51 1014.51 1014.41 1014.57 1014.34 1014.36 1014.72 1015.20 1015.80 1016.73 1017.18 1017.28 1017.03 1014.97 1015.13 1015.64 1015.78 1015.62 1015.82 1016.21 1016.61 1016.97 1017.22 1017.48 1017.82 1018.12 1018.31 1018.45 1018.62 1018.79
1012.51 1013.58 1013.98 1014.68 1013.38 1013.69 1014.40 1014.86 1014.72 1014.45 1014.47 1014.42 1014.36 1014.54 1014.51 1014.49 1014.57 1014.51 1014.56 1014.28 1014.81 1015.23 1015.88 1016.26 1017.19 1016.11 1016.18 1015.07 1015.52 1015.48 1015.29 1015.43 1015.68 1015.81 1016.20 1016.52 1016.80 1017.13 1017.46 1017.71 1017.90 1018.07 1018.25
1011.80 1012.41 1012.90 1013.21 1013.44 1013.59 1014.27 1014.71 1014.64 1014.34 1014.30 1014.52 1014.54 1014.49 1014.68 1014.43 1014.57 1014.68 1014.80 1014.89 1014.85 1015.07 1015.59 1015.76 1015.60 1015.68 1015.07 1015.10 1015.26 1015.49 1014.92 1014.59 1014.59 1015.01 1015.34 1015.76 1016.05 1016.41 1016.73 1016.90 1017.07 1017.26 1017.43
1012.09 1012.28 1012.63 1013.04 1013.09 1013.57 1013.89 1014.36 1014.17 1013.97 1013.87 1014.09 1014.33 1014.38 1014.29 1014.24 1014.50 1014.81 1014.82 1014.91 1014.90 1014.70 1014.99 1015.53 1015.24 1014.54 1014.59 1014.70 1014.75 1014.95 1014.80 1014.36 1014.00 1014.05 1014.62 1015.01 1015.34 1015.66 1015.90 1015.97 1016.03 1016.16 1016.33
1011.94 1012.02 1012.13 1012.54 1012.85 1013.23 1013.45 1013.47 1013.56 1013.49 1013.47 1013.56 1013.88 1013.93 1013.86 1014.07 1014.35 1014.49 1014.68 1014.73 1014.70 1014.87 1015.14 1015.41 1015.28 1014.88 1014.52 1014.27 1014.31 1014.54 1014.52 1014.20 1013.89 1013.62 1014.16 1014.24 1014.67 1014.76 1014.84 1015.13 1015.38 1015.45 1015.63
1010.97 1011.45 1011.72 1011.88 1012.17 1012.37 1012.39 1012.59 1012.77 1012.77 1012.89 1013.22 1013.43 1013.71 1013.54 1013.60 1013.62 1013.91 1014.32 1014.46 1014.51 1014.69 1014.87 1014.99 1014.86 1014.41 1014.28 1014.19 1014.18 1014.04 1013.87 1013.80 1013.56 1013.74 1013.89 1013.86 1014.21 1014.68 1014.55 1014.84 1014.91 1014.99 1014.99
1009.99 1010.69 1010.89 1011.04 1010.97 1011.03 1011.02 1011.26 1011.52 1011.96 1012.13 1012.54 1013.05 1013.13 1013.32 1013.49 1013.39 1013.57 1013.66 1013.72 1013.93 1014.29 1014.62 1014.77 1014.76 1014.59 1014.35 1014.31 1013.99 1014.02 1013.83 1014.06 1013.87 1013.26 1013.40 1013.58 1013.53 1013.89 1013.53 1013.24 1013.24 1013.50 1013.89
1009.21 1009.67 1010.15 1010.28 1010.29 1010.36 1010.27 1010.38 1010.72 1011.08 1011.39 1011.70 1012.15 1012.38 1012.67 1012.67 1012.66 1012.79 1012.89 1013.21 1013.41 1013.55 1013.76 1014.11 1014.27 1013.96 1013.93 1014.10 1013.97 1013.97 1013.95 1013.93 1013.89 1013.66 1013.77 1013.79 1013.53 1013.49 1012.97 1013.24 1013.10 1013.31 1013.94
1008.65 1008.76 1009.24 1009.60 1009.84 1009.77 1009.93 1010.17 1010.28 1010.71 1010.85 1010.98 1011.26 1011.60 1011.90 1012.17 1012.20 1012.40 1012.64 1012.89 1013.17 1013.12 1013.21 1013.51 1013.52 1013.38 1013.36 1013.42 1013.78 1013.86 1014.00 1014.03 1013.96 1013.65 1013.62 1013.85 1013.61 1013.58 1013.82 1013.95 1013.79 1013.95 1014.41
1007.97 1007.95 1008.30 1008.82 1009.11 1009.26 1009.38 1009.71 1010.22 1010.37 1010.46 1010.50 1010.64 1010.88 1011.20 1011.47 1011.60 1012.02 1012.07 1012.31 1012.47 1012.37 1012.04 1012.43 1012.51 1012.52 1012.76 1012.91 1013.12 1013.52 1013.72 1014.09 1013.96 1013.76 1013.54 1013.78 1013.74 1013.74 1013.59 1014.28 1014.44 1014.41 1014.83
1007.40 1007.40 1007.56 1007.94 1008.20 1008.37 1008.68 1008.99 1009.46 1009.72 1009.84 1009.90 1009.92 1010.08 1010.26 1010.45 1010.77 1011.09 1011.51 1011.72 1011.90 1011.81 1011.82 1011.95 1012.39 1012.66 1012.66 1012.60 1013.02 1012.95 1013.17 1013.58 1013.86 1013.90 1013.41 1013.64 1013.54 1013.74 1013.63 1013.53 1014.39 1014.75 1015.20
Wind_Speed
6 5 5 7 2 8 6 4 9 11 6 4 5 4 3 2 12 6 5 15 13 12 13 11 12 13 15 16 14 12 11 10 10 10 10 9 10 9 10 9 9 8 8
6 6 6 5 3 1 7 7 4 4 4 4 5 4 4 4 9 11 7 7 11 9 11 11 12 13 12 12 13 13 12 11 11 11 11 11 11 10 9 9 10 10 8
7 7 8 1 3 3 7 9 6 8 5 6 5 3 5 5 10 11 10 7 7 10 9 10 10 10 11 12 12 13 13 13 13 13 14 13 11 10 11 11 10 10 10
8 9 5 2 4 4 3 2 6 3 4 6 7 3 3 3 5 6 10 10 8 7 8 11 11 11 11 12 13 12 13 13 14 15 15 13 12 12 10 11 11 10 11
9 6 3 2 4 4 2 5 5 7 4 2 4 2 3 3 5 5 10 12 12 9 8 12 12 12 14 14 13 13 13 13 14 14 13 12 11 11 12 12 11 12 11
9 5 3 5 8 1 2 3 3 2 5 5 6 2 7 2 3 4 4 8 11 11 11 11 8 8 14 15 15 13 14 15 15 14 14 13 13 13 12 12 12 12 12
10 7 3 4 4 2 3 4 3 5 7 4 4 4 4 5 5 4 5 4 6 11 11 10 8 7 9 17 14 14 14 16 16 15 14 13 12 12 12 12 12 12 12
8 6 4 8 5 1 7 6 3 3 2 2 4 4 5 4 3 6 2 0 8 6 11 13 12 11 9 8 11 15 14 14 16 16 15 14 14 13 13 12 12 12 12
7 5 8 6 6 3 3 4 4 6 5 4 11 5 5 3 4 5 8 6 6 4 7 10 13 12 11 10 12 15 17 15 16 17 17 16 14 13 13 13 12 12 12
9 9 7 9 7 0 6 8 5 4 3 4 4 3 3 8 5 2 2 4 8 5 5 5 6 8 10 9 14 16 18 17 18 18 17 16 14 14 14 14 13 13 13
8 12 10 7 5 4 5 1 1 2 2 1 3 2 4 3 0 6 3 6 4 3 5 5 5 6 7 6 9 14 22 21 19 17 15 15 14 14 15 14 14 14 14
6 5 7 5 5 3 4 4 2 1 1 4 3 3 3 2 2 4 2 1 3 3 6 8 7 5 7 7 10 16 22 21 20 18 16 15 15 15 16 16 15 14 14
8 9 7 5 4 4 5 5 2 2 2 2 5 3 3 3 13 9 0 1 0 3 4 5 7 7 6 6 6 12 17 18 17 16 15 14 14 14 14 15 15 15 15
6 12 10 11 7 5 6 5 4 3 4 3 6 5 3 5 8 7 4 5 1 4 3 6 5 4 5 4 6 14 9 16 16 15 15 14 14 13 13 13 14 14 14
2 13 10 9 9 8 9 6 4 3 4 2 5 5 4 4 4 2 3 3 4 4 4 5 2 6 3 5 6 8 8 15 16 15 15 15 14 14 14 14 13 12 12
9 7 6 5 7 7 5 5 6 6 5 4 5 5 6 3 6 0 2 4 3 4 4 7 0 8 5 2 8 8 7 13 17 15 15 15 15 14 14 14 13 13 12
10 13 2 11 6 5 5 6 8 2 4 4 5 5 3 5 4 4 6 1 1 2 1 4 4 9 8 4 5 5 5 5 8 18 17 16 15 15 14 14 14 13 12
3 10 13 15 12 5 7 8 7 8 7 6 6 6 6 5 5 4 4 6 3 3 3 3 3 8 7 5 5 6 5 6 5 16 19 17 17 16 16 15 15 15 15
8 8 15 14 7 8 7 9 8 7 4 5 6 9 6 6 2 4 4 4 5 2 2 2 4 3 2 3 5 6 7 6 6 6 18 17 16 16 17 17 17 17 17
14 12 11 13 12 11 10 10 8 7 7 7 8 7 6 6 6 5 5 5 5 4 3 3 4 4 3 4 5 5 3 4 6 2 8 13 15 18 18 18 17 17 17
12 13 12 12 14 13 10 11 11 8 8 6 7 6 6 7 11 9 5 6 5 4 4 5 5 3 2 2 4 3 3 1 4 3 5 5 7 5 7 12 14 16 16
12 12 13 13 11 10 15 16 11 11 10 10 9 7 6 8 9 10 12 11 8 4 5 4 4 4 4 3 3 3 2 2 3 1 3 2 4 5 7 7 14 19 16
11 13 13 13 13 12 13 13 16 10 8 8 10 8 7 9 10 10 11 10 9 10 10 5 6 7 5 3 5 5 3 1 2 4 3 3 3 4 4 4 8 10 10
12 12 13 14 14 12 13 12 13 9 8 7 7 7 9 10 10 6 7 6 7 8 7 8 10 10 10 7 4 2 3 3 3 3 1 3 3 6 2 3 11 14 14
12 14 13 14 15 15 15 15 11 9 10 9 8 8 9 9 12 7 6 7 7 8 9 13 15 9 7 7 6 2 4 3 4 3 2 2 3 2 2 4 4 12 13
14 12 14 15 17 16 15 16 14 10 11 9 10 11 14 12 12 11 6 7 8 9 5 5 3 4 5 6 5 6 5 5 3 3 2 1 1 2 3 2 6 5 5
Wind_Direction
247 261 275 266 134 141 109 251 221 247 237 223 214 190 245 212 186 155 160 178 165 169 177 186 190 180 179 183 189 199 205 213 220 220 221 225 217 215 223 233 232 227 238
263 275 270 240 156 121 93 251 255 259 251 259 147 204 190 285 144 135 138 162 159 180 174 182 187 190 188 190 200 206 209 213 209 218 227 227 226 230 223 228 233 236 243
253 264 268 302 317 107 180 216 19 322 312 333 142 205 183 208 136 139 146 149 157 180 175 174 178 187 189 196 205 211 213 212 212 217 224 222 224 229 233 235 240 240 240
234 262 280 148 252 95 14 332 172 251 30 13 292 215 197 172 118 146 151 148 157 172 194 190 189 198 200 204 204 204 206 210 211 213 217 220 222 229 230 237 241 243 247
240 252 275 9 297 122 95 264 281 141 76 81 321 299 233 173 163 190 155 154 166 159 172 194 201 202 207 212 213 214 215 214 214 214 217 222 223 231 233 236 240 244 246
245 249 257 182 258 165 47 293 38 333 135 223 175 230 299 179 205 126 160 179 161 166 171 168 181 193 204 212 211 213 216 213 216 217 218 221 223 227 234 239 243 248 250
236 234 289 257 204 269 82 313 316 71 317 208 38 36 247 196 184 167 170 184 154 167 149 162 180 197 198 211 214 206 209 206 209 214 220 224 224 234 239 241 243 248 250
245 219 90 304 238 58 164 208 343 52 289 26 86 65 349 335 37 14 67 318 174 149 164 172 184 200 180 193 202 197 206 207 208 212 219 226 231 237 240 240 241 244 247
214 211 137 249 267 255 278 159 123 84 302 306 162 161 152 249 320 174 225 196 190 201 161 172 195 185 178 187 191 196 201 206 212 216 220 224 229 233 236 239 240 242 244
203 179 201 207 227 22 96 250 163 193 225 276 33 7 125 160 203 212 272 185 191 160 190 176 183 177 170 191 187 190 196 204 210 216 218 220 224 229 234 239 242 243 244
211 191 190 197 221 244 260 204 151 152 201 103 132 280 203 182 15 65 347 320 277 141 107 201 192 185 178 183 194 190 188 197 202 209 216 224 229 231 237 242 244 244 245
216 226 180 188 212 247 299 305 291 277 43 334 315 310 105 85 343 64 170 210 255 355 348 308 169 235 182 189 212 180 185 192 198 202 209 218 226 232 238 244 246 244 242
195 208 193 175 211 227 272 281 285 324 322 276 299 308 307 197 123 208 156 78 243 25 345 324 269 167 206 196 200 156 181 187 193 197 203 211 221 229 235 240 247 250 246
203 183 185 180 207 199 237 244 238 218 241 234 275 287 298 296 148 196 166 146 10 71 316 280 283 198 192 199 204 164 176 185 190 197 204 210 216 223 232 237 240 243 248
308 213 174 180 183 196 222 222 245 238 273 227 268 268 277 285 288 144 136 150 162 124 188 296 309 309 277 170 178 181 173 194 195 201 207 210 215 222 226 231 234 238 241
205 72 351 222 176 199 206 211 231 230 198 209 244 257 265 307 329 312 220 139 198 184 150 195 125 293 232 177 175 190 197 183 198 202 209 211 213 220 227 230 231 234 238
116 133 74 312 244 190 216 216 253 260 231 250 277 305 303 302 310 332 334 209 239 168 122 160 159 241 281 144 165 228 166 180 192 207 207 210 213 216 221 226 229 231 234
192 148 152 217 235 203 201 228 230 250 189 226 266 254 232 242 247 301 308 317 327 358 24 316 178 209 202 188 188 202 223 239 207 202 201 205 208 213 217 219 222 225 226
192 209 184 205 206 220 226 221 219 240 249 228 240 245 225 247 218 265 280 302 314 289 304 212 284 237 151 209 199 211 212 226 255 188 194 209 208 213 221 223 223 221 222
201 208 194 198 196 207 219 213 207 212 237 240 240 250 211 226 211 223 255 275 279 292 297 291 258 270 219 197 176 203 219 242 244 224 194 200 215 220 221 225 228 227 227
203 210 218 210 196 201 210 209 207 203 210 237 271 265 250 231 208 198 208 230 247 289 284 286 270 270 286 282 192 216 182 277 254 210 209 220 216 223 238 238 244 239 233
201 209 216 223 212 212 206 215 198 196 203 200 226 237 244 254 230 196 212 219 188 210 257 266 274 283 282 339 354 325 314 6 330 271 30 311 153 219 239 217 213 223 218
211 211 223 226 224 219 225 206 206 208 204 197 202 212 228 250 228 215 218 228 227 209 208 228 267 272 296 277 294 276 276 300 262 305 9 275 277 285 328 64 79 108 114
226 219 216 225 231 228 212 193 193 206 217 216 219 213 211 234 264 242 209 208 232 240 221 226 232 247 251 265 258 267 334 309 315 290 316 282 302 286 131 40 89 98 107
221 223 222 220 221 230 215 199 185 201 217 225 229 229 222 218 236 187 192 208 227 235 235 229 234 245 250 245 234 238 258 239 272 258 258 188 251 297 286 138 120 117 120
228 224 220 223 226 224 216 209 198 221 226 227 223 224 227 226 208 214 215 211 232 244 229 262 223 240 220 228 204 220 220 236 219 291 160 229 84 43 317 108 133 144 129